Vorticity
5 10 13 8 2 3 4 6 5 3 5 7 7 4 3 4 4 5 5 7 6 7 8 6 6 5 6 7 6 5 4 4 4 6 5 4 8 9 7 5 5 5 4 6 8 11 13 11 8 6 6 6 6 7 7 8 8 7 8 4 11 25 12 2 4 6 5 1 10 7 4 7 3 6 8 9 10 6 5 5 6 8 8 8 7 6 6 6 6 6 7 7 6 6 6 7 7
5 11 12 7 3 3 4 6 5 2 4 7 6 4 3 3 4 4 4 6 7 6 7 7 7 6 5 6 5 2 2 4 3 4 5 5 7 7 7 6 4 3 2 3 5 8 12 13 12 11 10 10 9 6 6 9 10 9 12 11 10 12 5 2 5 7 5 5 10 5 4 8 5 7 7 5 7 6 6 6 7 8 8 6 6 6 6 5 6 6 6 6 5 5 6 7 7
4 10 9 5 4 3 3 4 5 3 3 7 7 3 4 4 4 4 4 6 7 6 6 7 7 6 5 3 3 2 3 6 6 5 6 6 6 5 6 6 4 4 4 5 5 6 7 9 10 10 12 12 8 6 7 7 7 8 9 10 7 5 6 5 5 6 4 8 13 6 6 8 3 4 7 4 3 6 6 7 7 8 7 6 7 7 6 5 7 7 6 5 5 7 6 6 7
3 8 7 4 4 3 2 2 5 5 4 7 7 4 5 5 4 5 4 6 6 6 7 8 8 6 5 3 3 5 5 8 10 10 8 7 7 5 5 6 6 6 6 7 6 5 4 3 5 10 13 10 10 8 6 4 4 4 6 8 8 7 6 3 5 7 3 10 13 5 7 8 5 5 5 5 5 5 5 8 9 9 8 6 7 6 6 6 7 7 7 6 6 7 7 7 7
2 6 7 3 3 3 2 3 5 4 5 9 7 4 5 4 3 5 5 5 6 7 7 8 7 5 4 4 5 8 8 9 10 12 10 8 10 7 6 7 8 7 6 7 6 5 4 3 4 10 12 9 11 12 10 9 8 6 7 9 10 10 8 5 7 3 4 14 12 7 8 5 7 9 5 5 6 4 6 9 9 9 7 6 7 5 6 7 7 5 6 7 7 8 8 7 7
3 6 8 4 4 4 1 5 7 3 6 10 7 6 5 4 5 5 5 4 4 6 7 7 6 5 4 3 5 8 8 9 10 13 11 9 11 9 7 8 9 6 5 6 6 6 5 6 6 6 8 8 9 11 13 13 12 11 9 9 12 14 10 10 9 1 10 19 10 5 7 4 7 10 5 5 6 7 10 9 7 8 6 8 8 6 8 8 7 4 5 7 7 7 6 7 8
2 4 6 5 6 7 5 6 6 5 10 10 7 7 4 5 6 5 4 4 4 4 6 7 7 6 5 4 4 6 8 9 9 10 11 10 9 7 8 9 8 4 4 6 6 8 6 6 6 6 5 5 9 8 11 12 9 8 8 8 12 18 15 11 8 2 11 20 10 3 9 6 5 8 4 4 6 8 10 7 8 9 8 9 8 7 9 7 6 5 5 7 6 6 7 9 8
2 4 2 5 9 9 7 5 4 6 8 7 5 3 3 4 4 6 6 4 4 4 5 5 7 6 4 4 5 5 6 8 9 8 8 9 8 6 8 8 7 5 6 6 5 6 5 5 5 7 6 3 5 4 9 17 14 10 11 9 14 30 25 8 6 5 8 16 12 6 13 6 1 9 8 6 5 7 7 7 9 8 7 6 7 8 7 5 5 5 5 6 6 6 8 8 7
2 4 1 5 8 6 5 4 5 5 4 6 4 3 4 4 2 6 6 3 4 3 5 6 6 7 5 5 4 4 4 6 9 8 7 8 8 7 8 8 8 8 9 5 3 4 3 6 5 5 6 4 4 0 4 16 15 11 12 7 20 44 29 7 8 7 3 11 14 7 10 6 2 9 10 7 5 7 6 6 9 7 7 6 8 10 8 7 6 6 6 7 8 8 8 7 6
2 3 3 3 5 6 8 6 5 3 4 6 4 4 4 3 4 6 5 4 4 3 4 6 6 6 6 5 4 4 4 5 7 8 8 9 8 8 8 7 7 8 8 4 3 6 5 6 6 6 6 4 6 4 4 11 12 10 15 8 16 39 26 11 12 5 -2 5 12 7 10 10 4 4 5 7 5 7 7 7 9 7 8 7 9 10 6 6 7 8 8 8 8 8 7 7 7
3 5 3 4 5 4 7 4 3 3 5 5 3 4 4 6 7 4 4 5 5 4 4 4 4 5 5 5 4 4 4 5 6 6 7 9 8 8 9 8 8 7 8 6 5 6 8 9 6 7 8 6 6 7 6 8 12 10 14 11 6 17 16 11 10 6 2 1 6 6 10 11 6 6 8 9 6 7 9 10 9 6 6 6 8 7 5 7 8 9 8 7 8 7 7 7 8
5 5 2 7 6 1 9 7 2 5 4 3 4 6 6 8 7 5 5 6 5 3 4 3 3 6 5 4 5 3 3 4 5 5 4 7 9 9 8 7 7 8 9 10 8 5 5 8 8 7 7 7 5 6 7 4 8 9 11 16 9 5 7 5 4 7 6 2 5 7 8 7 5 6 6 7 8 9 9 9 8 7 7 7 6 4 6 8 8 7 6 7 7 7 7 8 9
5 4 1 7 6 11 23 13 2 5 4 2 6 7 6 8 8 8 8 6 5 1 3 3 3 7 6 4 5 4 3 3 5 5 4 5 9 10 9 6 5 5 6 8 10 7 2 1 5 9 6 3 4 4 9 9 7 7 8 16 15 10 11 8 5 8 9 6 9 10 9 7 5 6 7 7 7 7 6 8 8 8 8 8 5 5 8 8 6 6 7 8 7 6 7 8 10
6 4 1 1 9 25 27 12 4 4 5 4 8 8 4 7 7 8 8 5 5 3 3 3 3 6 7 5 4 5 4 3 4 4 4 7 8 9 10 8 8 7 7 9 9 10 8 5 1 6 10 3 5 4 3 9 9 6 5 7 10 12 13 11 10 8 8 7 7 8 7 8 7 7 10 7 6 6 6 6 7 6 7 7 5 6 8 7 7 7 8 8 6 6 7 9 10
7 5 4 0 7 21 18 13 7 -1 4 6 8 9 2 5 6 6 7 5 6 5 7 8 5 6 7 6 4 5 6 3 3 4 5 9 10 10 11 10 12 11 10 11 10 9 9 12 3 1 11 7 5 5 -1 1 2 5 6 3 5 6 6 7 8 7 7 6 6 9 7 7 7 7 9 7 6 8 8 8 7 5 6 9 8 9 8 7 9 9 9 8 6 7 8 9 9
9 6 5 3 3 8 12 17 7 -3 7 9 9 8 1 3 4 6 6 5 6 5 9 9 4 5 6 5 3 5 6 3 3 4 5 9 12 11 10 9 9 8 9 9 8 9 7 10 9 1 8 7 2 4 5 4 2 3 4 4 6 5 4 6 6 7 8 7 7 8 7 8 6 7 9 6 4 6 11 12 8 5 6 8 8 9 7 7 10 10 9 7 6 7 8 8 8
11 7 5 8 5 2 9 16 13 7 6 7 10 6 2 4 4 6 6 4 5 3 6 6 5 6 6 4 3 4 5 4 2 4 6 9 13 10 8 7 7 8 10 11 9 11 9 8 10 6 6 7 6 5 5 6 5 3 1 3 5 5 5 5 6 6 6 7 8 6 7 10 9 8 7 7 9 8 10 9 4 5 7 6 7 8 7 8 10 10 8 6 6 7 8 7 7
7 6 5 9 7 1 4 6 13 17 7 6 10 6 4 4 3 4 4 3 3 3 3 3 6 7 6 6 5 6 7 5 3 4 6 9 13 9 7 7 7 9 10 12 12 12 13 10 9 9 7 6 7 8 6 5 5 7 5 3 3 6 6 4 4 3 3 5 5 6 8 9 8 5 5 14 19 11 7 8 5 5 7 6 8 10 8 9 11 9 7 6 6 7 7 6 6
7 8 7 9 7 3 3 -1 4 11 7 8 9 6 4 2 2 4 4 4 3 4 5 4 5 5 6 7 5 6 7 5 3 4 7 10 12 9 7 7 7 7 8 9 10 10 12 12 11 10 10 9 7 8 8 6 5 6 6 5 3 4 6 5 5 4 5 5 5 8 8 5 7 6 7 17 17 7 7 8 6 5 6 7 8 9 8 9 10 9 7 6 6 6 5 5 5
8 9 8 11 9 2 1 1 3 4 5 8 7 7 5 2 5 7 7 6 3 4 6 4 5 5 5 7 6 4 5 5 4 5 7 10 12 9 7 6 6 6 7 8 8 9 9 10 12 12 12 11 9 8 8 7 6 5 5 5 3 3 6 6 6 4 4 6 6 7 6 6 8 8 10 14 9 5 7 6 6 6 6 7 7 6 7 9 9 8 7 6 5 5 4 4 5
7 7 7 11 10 4 0 -0 2 2 3 7 7 7 6 5 6 7 8 7 4 6 8 6 5 6 5 7 7 3 3 4 5 5 6 10 12 9 6 4 5 6 7 8 9 10 8 7 10 11 12 11 10 9 8 8 6 7 7 6 5 3 5 6 6 3 4 7 4 1 5 10 9 8 9 10 9 7 7 7 7 6 6 7 6 4 7 9 9 7 6 5 4 4 4 4 4
6 6 6 8 10 8 2 -1 1 3 4 4 6 7 6 6 5 6 8 6 4 4 6 7 6 6 5 5 6 3 2 3 4 6 6 10 12 9 5 4 5 7 9 10 11 12 9 8 9 10 10 10 12 10 9 8 7 7 8 8 7 7 6 5 6 5 6 8 5 3 6 6 3 2 2 4 6 6 7 9 7 5 7 7 5 5 6 8 8 7 5 5 4 4 4 4 4
6 6 5 6 10 10 5 2 2 4 6 5 5 6 6 6 4 5 6 5 6 4 3 6 7 6 5 5 5 4 3 3 4 6 7 9 12 10 5 3 4 8 10 10 12 13 11 9 9 10 10 10 10 10 10 8 8 8 10 8 6 9 10 7 7 6 6 4 3 6 6 1 -0 2 4 5 7 9 11 10 6 5 6 6 5 5 5 7 8 7 5 5 5 5 4 3 5
6 6 6 6 9 11 7 5 3 3 5 7 7 6 6 6 4 4 6 7 8 8 7 7 5 3 6 5 3 5 4 3 3 4 6 7 12 11 5 4 5 8 10 9 11 11 11 11 10 10 10 10 9 10 10 8 9 9 9 10 7 6 7 9 10 5 5 3 3 4 4 5 5 7 9 8 10 12 11 10 7 6 6 5 6 6 7 9 8 7 6 5 5 5 4 4 6
6 6 6 6 7 7 5 5 4 2 4 6 8 10 9 6 5 5 6 8 9 9 8 8 6 5 8 4 1 8 8 4 3 3 4 6 11 10 5 4 5 9 9 8 10 11 11 11 10 10 11 11 10 9 9 8 9 8 8 12 12 9 8 11 9 5 6 6 7 6 7 8 5 7 10 9 12 12 10 10 9 8 6 4 5 7 8 9 8 7 6 5 5 4 4 6 7
6 5 5 5 6 5 4 5 4 4 5 4 6 13 13 6 6 8 7 6 8 8 7 6 7 5 6 4 3 10 10 5 4 3 4 6 10 10 6 4 6 9 9 9 10 10 10 11 10 9 11 12 11 10 9 9 9 9 9 10 9 11 13 9 7 8 8 6 8 8 8 6 4 9 11 12 14 11 10 10 9 8 5 4 6 7 8 9 8 6 5 6 5 3 4 6 7
7 6 5 4 4 4 3 4 6 5 6 5 5 12 14 7 6 7 5 6 6 6 6 6 7 5 6 6 5 8 7 5 4 2 4 6 8 11 7 4 6 8 9 9 9 9 9 10 10 8 9 11 11 11 9 8 9 10 10 10 10 12 11 8 9 10 8 8 8 7 8 5 7 11 10 14 15 9 11 10 8 8 5 4 5 6 7 8 7 6 6 6 4 3 4 6 7
9 8 6 4 3 4 3 4 5 4 5 5 5 9 11 9 9 9 6 6 6 4 6 7 8 7 7 7 5 4 4 6 6 2 3 5 7 12 9 5 6 8 9 8 8 8 8 8 9 9 9 10 11 11 10 9 9 9 8 10 12 10 9 10 10 8 8 10 7 7 7 5 10 12 11 17 15 9 11 10 7 7 4 5 5 5 7 7 6 6 6 5 3 3 5 6 7
10 9 6 4 4 4 3 3 3 4 5 5 7 10 12 12 12 12 8 5 4 3 5 6 7 8 7 7 4 3 5 8 6 2 4 4 6 14 11 5 5 8 9 8 7 7 7 7 8 9 10 11 11 11 11 9 8 9 8 7 7 8 10 11 8 8 9 8 7 8 5 7 13 13 14 18 14 10 11 8 6 5 4 5 5 5 7 7 5 6 6 4 3 3 5 7 7
11 10 8 5 7 9 6 4 3 5 6 7 8 5 8 16 14 9 4 3 5 4 5 4 4 6 7 8 6 4 4 7 6 2 4 3 5 14 9 3 6 8 8 7 7 8 7 8 8 8 10 12 12 12 12 9 8 10 8 6 8 11 13 11 7 7 7 6 9 7 3 11 14 12 17 18 13 11 9 7 6 4 4 5 5 6 8 7 5 6 6 3 3 3 5 7 7
9 8 9 6 5 7 5 5 5 5 5 6 8 2 3 12 9 5 2 2 5 4 5 5 4 6 9 12 11 7 3 5 6 2 3 3 5 12 6 4 8 7 8 7 6 8 9 10 11 10 10 12 11 11 12 10 9 8 8 8 11 13 14 13 11 7 6 7 9 5 6 15 14 14 19 14 10 9 7 7 6 4 4 5 6 7 7 7 6 6 5 3 3 3 5 7 7
3 4 9 7 5 5 4 10 9 4 6 6 7 5 3 6 5 4 2 3 4 2 3 4 2 4 8 14 15 9 5 5 5 3 3 2 6 10 5 5 9 7 7 7 7 10 11 13 14 12 11 12 11 11 12 11 9 9 9 10 11 10 11 14 12 7 7 7 6 6 11 15 14 18 17 10 9 8 8 7 4 4 6 6 7 7 7 6 6 6 4 4 3 3 5 5 5
5 5 7 3 4 7 4 10 10 5 8 7 7 4 0 5 7 4 3 3 3 0 2 2 3 5 4 14 24 13 3 6 5 4 3 2 8 10 5 5 8 8 6 7 10 13 14 16 16 13 11 12 12 11 12 11 10 8 7 8 10 8 11 14 8 6 9 9 9 11 13 16 17 16 12 8 8 8 9 5 2 6 7 6 6 6 7 6 6 6 4 4 4 4 4 4 4
7 7 9 4 5 10 5 5 9 8 10 9 9 7 4 7 6 4 5 4 5 5 7 7 7 9 2 12 31 16 1 6 5 3 3 4 10 10 5 7 8 7 6 9 13 14 16 17 14 12 11 11 12 13 13 12 11 11 9 8 8 8 11 11 6 8 11 12 15 14 14 18 16 11 9 8 9 9 7 3 4 7 6 6 6 7 7 7 7 6 5 5 5 4 4 4 4
6 7 10 8 9 14 9 5 8 9 9 9 8 7 8 9 6 6 7 6 10 9 11 12 9 12 7 8 22 13 -0 6 4 4 5 4 9 9 4 6 8 7 6 11 14 14 16 14 11 10 10 10 10 11 13 11 9 11 12 10 9 11 12 11 12 12 9 11 15 14 16 17 11 8 9 10 10 8 4 4 7 6 5 6 6 7 8 7 6 5 6 6 4 5 4 4 4
7 7 8 8 9 10 6 3 6 8 9 9 8 6 8 9 8 8 6 5 7 6 10 12 7 13 14 8 16 14 4 5 5 6 6 3 8 9 3 5 8 6 8 14 14 12 13 12 10 10 10 10 10 10 12 11 10 9 9 9 11 12 12 14 12 8 8 14 16 15 15 11 8 10 11 11 8 4 3 5 6 5 6 7 6 8 8 6 6 6 6 5 5 6 4 4 4
7 5 4 5 6 7 6 3 5 7 6 6 6 6 7 8 9 6 5 4 4 6 8 8 10 19 24 20 21 20 9 4 5 7 4 2 8 8 3 6 9 6 9 15 14 11 13 16 16 15 14 14 14 14 15 16 18 16 11 10 13 11 9 10 8 9 16 19 17 15 12 9 10 12 10 8 5 3 4 5 6 6 7 7 6 7 7 5 6 7 6 5 6 6 4 4 5
4 4 3 2 2 2 3 2 4 4 2 4 6 7 6 5 5 4 4 3 4 7 6 12 24 29 30 29 22 16 10 5 4 5 3 1 6 9 5 6 8 7 11 15 12 11 12 13 13 13 14 13 13 14 15 18 24 26 19 14 16 13 9 8 12 21 22 17 13 11 9 10 11 9 6 5 3 3 5 5 6 7 7 7 6 7 8 6 6 7 5 5 6 6 4 5 5
3 3 2 3 4 3 2 2 3 4 3 2 4 6 5 5 5 4 4 2 5 7 6 19 30 26 29 29 18 12 10 6 4 3 3 2 7 9 7 7 7 8 13 14 11 10 7 7 7 8 11 11 12 14 14 18 24 27 24 19 18 16 14 15 19 20 14 9 9 8 9 10 8 5 4 3 3 4 4 6 8 7 7 7 6 7 7 6 7 6 5 4 5 5 4 5 5
6 4 4 4 7 8 6 6 3 3 5 1 2 5 5 6 5 5 4 3 9 8 15 37 41 39 40 24 12 13 7 4 6 5 3 4 9 10 6 7 7 9 14 13 11 9 3 3 7 8 11 13 13 15 15 16 21 24 24 22 21 19 17 15 12 9 7 8 9 9 9 6 4 3 3 4 4 5 6 7 8 8 7 8 7 7 7 7 7 7 7 6 5 4 4 5 5
7 7 7 4 6 7 5 7 5 5 9 8 7 6 6 7 5 6 5 8 13 8 25 56 54 45 36 11 5 10 6 7 7 4 3 4 8 9 6 7 6 9 15 13 10 10 3 2 8 9 11 14 14 15 14 13 16 19 21 20 18 15 12 9 7 7 8 8 8 6 5 3 4 4 4 6 6 6 8 9 9 8 7 7 7 7 7 7 8 8 8 8 6 5 5 5 5
10 8 6 4 5 5 7 10 8 7 9 9 7 3 4 7 8 11 8 10 14 8 35 66 48 29 17 1 4 7 5 8 3 1 3 4 9 9 6 6 6 9 15 13 10 10 5 4 9 11 12 14 13 13 12 11 11 12 12 12 11 9 7 7 7 7 6 5 5 4 4 5 6 6 7 7 8 8 8 9 9 7 7 8 7 7 8 8 9 7 7 8 7 6 7 6 5
15 13 9 6 4 9 15 14 10 10 8 5 6 6 7 6 8 14 9 10 12 12 41 56 28 15 11 1 4 6 5 5 -2 0 5 3 7 10 7 5 6 11 14 12 10 9 8 9 11 12 14 14 11 10 10 10 10 8 8 8 8 7 7 7 7 6 6 6 6 6 7 8 8 8 8 8 8 8 8 9 8 6 6 7 8 8 8 8 9 7 7 9 8 6 8 7 6
9 8 8 8 9 13 14 7 4 8 6 4 6 10 13 9 8 11 8 10 11 11 30 32 11 8 9 3 6 5 3 1 -2 2 7 6 8 12 9 5 7 11 13 11 10 9 10 12 13 12 13 12 9 9 9 9 9 9 9 8 8 8 7 7 6 6 7 7 7 7 7 7 8 8 8 8 7 7 8 9 8 9 7 7 9 9 8 9 9 7 7 8 8 7 8 6 5
5 3 7 10 12 10 6 3 3 5 7 8 7 9 12 10 9 10 9 10 10 9 16 20 16 13 8 3 6 7 4 2 1 2 4 5 9 14 10 5 7 9 12 11 8 9 11 13 13 12 12 9 7 7 6 7 7 7 7 7 7 7 6 6 6 6 7 7 7 7 7 7 7 8 8 7 6 6 8 9 9 10 8 7 9 10 8 8 9 8 6 7 7 7 7 7 5
6 7 11 10 10 7 5 8 9 9 12 12 10 11 11 9 9 10 9 9 8 8 11 17 22 20 16 10 4 5 8 6 1 -0 5 5 5 12 10 5 6 8 11 11 9 9 10 13 14 11 9 8 5 5 4 4 5 4 4 4 4 4 4 5 5 6 6 6 7 7 7 7 7 8 8 8 7 6 7 8 9 9 9 9 9 10 9 8 9 9 7 7 6 6 7 7 6
7 11 12 10 9 8 11 15 15 15 16 13 8 10 13 10 9 11 12 9 6 5 9 18 21 12 9 11 7 4 6 7 1 -5 3 7 3 8 11 4 4 8 11 10 10 10 9 12 14 10 8 6 4 4 3 3 3 3 3 2 2 3 4 4 4 5 5 5 7 6 6 7 7 7 7 7 8 8 8 7 7 9 10 10 9 9 8 7 8 8 8 8 7 7 7 7 8
14 11 10 9 8 9 13 15 16 17 15 11 6 8 16 12 5 8 13 11 6 3 5 16 27 20 7 6 7 5 4 6 4 -2 1 5 3 6 9 6 3 6 11 11 9 10 9 10 12 9 7 5 3 2 2 3 2 2 3 2 3 4 4 5 5 6 5 5 5 6 6 7 7 7 6 6 7 7 8 8 8 9 10 10 9 8 8 7 8 7 7 8 7 8 7 7 9
14 13 14 12 10 10 10 7 6 10 11 9 6 9 15 12 4 3 8 10 7 3 3 6 16 22 21 18 9 3 4 6 6 5 5 4 3 5 8 8 6 5 9 11 11 10 9 9 10 9 6 4 4 2 1 2 2 2 3 2 4 5 5 5 6 6 6 6 5 5 6 6 6 7 7 7 7 6 7 9 9 10 9 9 8 8 8 7 7 8 8 8 8 8 8 8 8
7 12 16 12 11 10 10 11 8 9 11 9 13 17 13 10 11 8 6 9 6 3 4 4 6 8 14 26 26 12 2 3 7 7 3 2 3 4 7 10 8 5 8 10 10 10 10 9 8 8 7 5 3 3 2 2 2 2 3 3 4 5 6 6 6 7 6 7 7 6 6 6 7 8 8 8 8 8 8 8 9 9 9 9 8 8 8 8 7 7 8 8 8 8 8 8 9
8 11 13 12 18 14 8 12 9 9 16 11 14 23 12 3 10 11 8 10 9 7 3 0 8 9 -0 10 30 29 12 1 5 7 2 3 6 3 4 11 11 5 6 10 10 10 10 9 8 6 6 5 3 3 3 3 3 3 3 4 4 5 6 6 6 7 7 7 8 8 7 7 7 8 9 9 9 9 9 8 8 7 8 8 7 8 7 7 7 7 7 7 8 8 7 8 8
7 7 16 11 13 14 11 14 7 6 13 8 10 19 14 5 5 6 5 6 8 10 5 -2 5 11 2 1 15 28 26 11 1 4 5 4 7 6 3 6 12 9 5 8 9 9 10 9 8 6 5 5 4 4 4 3 4 4 4 4 5 6 6 7 7 6 7 7 7 8 8 7 7 7 8 10 9 10 10 9 8 7 7 7 6 6 6 7 7 6 7 6 6 6 6 6 6
-4 6 16 6 6 10 10 14 10 7 9 9 11 12 12 11 13 15 11 5 5 7 7 4 5 9 4 2 7 17 31 29 9 -0 5 5 3 7 7 4 8 11 7 6 8 9 10 10 9 8 6 5 5 4 4 4 4 4 5 5 5 7 7 7 8 7 7 8 7 8 8 8 8 8 9 9 10 10 9 8 8 7 6 7 6 6 6 6 6 6 6 6 6 6 6 7 7
-1 8 3 1 15 16 8 7 7 9 9 10 13 9 6 5 8 18 17 8 6 5 6 3 3 9 1 -6 2 9 21 36 28 7 0 6 7 5 7 6 5 9 8 6 8 8 9 9 9 10 8 6 5 5 4 4 5 5 5 6 7 8 9 9 9 9 9 9 8 8 9 9 8 8 9 9 9 9 9 8 8 7 7 7 7 7 7 7 7 6 5 5 6 7 7 7 7
3 -2 -10 -1 10 7 8 7 5 9 6 7 16 17 18 10 1 9 16 14 9 6 10 6 -1 7 3 -7 1 8 8 16 32 30 7 -2 7 7 7 6 3 7 10 8 7 7 9 9 8 10 10 8 6 5 5 5 6 7 7 8 9 9 9 9 9 10 9 9 9 9 8 8 8 8 9 9 8 8 8 8 8 7 7 7 7 7 8 7 7 6 6 7 7 7 8 7 8
5 3 6 11 5 -3 2 0 -1 5 4 6 11 8 16 19 8 7 11 14 13 7 9 11 4 4 2 -1 3 10 12 2 13 39 30 6 3 4 6 10 5 3 8 10 9 6 7 9 8 9 9 9 8 4 5 6 6 8 8 9 10 10 10 9 8 9 9 9 10 9 9 9 8 9 9 9 8 8 7 7 7 7 7 7 7 7 7 7 7 7 8 8 8 8 8 7 7
3 7 10 9 6 3 4 3 6 8 1 4 8 3 8 13 8 9 9 10 14 11 8 9 9 5 -0 3 4 3 13 8 3 23 31 22 18 10 5 7 7 6 5 8 13 9 7 8 8 9 8 8 10 6 4 4 5 6 8 10 11 10 9 8 7 8 8 9 10 10 10 10 10 10 10 10 10 10 9 8 8 8 7 7 8 8 8 8 7 8 8 8 8 8 8 8 7
4 3 2 2 5 6 4 7 13 12 3 3 8 5 2 1 4 11 11 9 10 11 11 9 10 8 -1 2 8 4 6 8 7 11 9 10 20 21 17 8 3 7 6 4 11 12 9 9 8 9 9 8 9 9 6 4 3 5 7 9 9 8 7 6 6 6 6 6 7 8 9 9 10 10 11 11 12 11 11 11 10 10 9 9 9 9 9 9 9 9 9 8 8 8 8 8 7
Height
5893 5892 5893 5893 5893 5893 5893 5894 5895 5894 5895 5896 5895 5895 5895 5894 5894 5894 5893 5893 5893 5893 5892 5892 5892 5892 5892 5892 5892 5891 5891 5891 5890 5890 5890 5890 5891 5891 5891 5891 5890 5891 5891 5891 5891 5891 5890 5890 5890 5890 5890 5891 5891 5892 5892 5892 5893 5893 5894 5894 5894 5894 5895 5895 5894 5894 5894 5895 5895 5895 5897 5898 5899 5900 5902 5902 5900 5898 5899 5900 5901 5902 5903 5904 5904 5905 5906 5906 5907 5908 5908 5907 5907 5907 5907 5907 5907
5893 5892 5893 5893 5893 5894 5893 5894 5895 5895 5895 5896 5896 5896 5895 5895 5894 5894 5894 5894 5893 5893 5893 5893 5893 5892 5892 5892 5892 5892 5891 5891 5890 5890 5889 5889 5890 5891 5891 5891 5890 5890 5890 5891 5891 5891 5890 5890 5890 5890 5890 5891 5891 5892 5891 5892 5893 5893 5894 5894 5894 5894 5895 5895 5893 5893 5893 5894 5895 5896 5897 5898 5899 5900 5903 5904 5902 5900 5899 5900 5901 5902 5903 5904 5905 5906 5907 5907 5908 5908 5908 5908 5907 5907 5907 5908 5907
5893 5892 5893 5893 5893 5893 5894 5894 5894 5895 5896 5896 5896 5896 5895 5895 5895 5894 5894 5894 5894 5893 5893 5893 5893 5893 5893 5893 5893 5892 5892 5891 5890 5889 5889 5889 5889 5890 5891 5891 5890 5890 5890 5890 5890 5890 5890 5890 5890 5890 5890 5891 5891 5891 5890 5891 5891 5892 5892 5892 5893 5893 5893 5893 5893 5893 5893 5892 5893 5896 5897 5897 5898 5900 5901 5903 5903 5901 5900 5900 5901 5902 5903 5904 5905 5906 5907 5908 5908 5908 5909 5909 5908 5908 5907 5908 5908
5893 5893 5893 5893 5893 5893 5894 5894 5895 5895 5896 5896 5896 5896 5896 5895 5895 5895 5894 5894 5894 5894 5894 5894 5893 5893 5893 5893 5893 5893 5892 5891 5890 5889 5889 5889 5889 5890 5891 5891 5891 5890 5890 5890 5890 5890 5890 5889 5889 5889 5889 5889 5889 5889 5889 5890 5891 5891 5891 5891 5891 5891 5891 5891 5891 5893 5893 5891 5892 5895 5896 5897 5897 5899 5900 5901 5902 5901 5901 5901 5901 5902 5904 5905 5906 5907 5907 5908 5908 5909 5909 5909 5909 5909 5908 5908 5908
5892 5893 5893 5893 5893 5893 5893 5894 5895 5896 5896 5896 5896 5896 5896 5895 5895 5895 5895 5894 5894 5894 5894 5894 5894 5893 5893 5893 5893 5893 5892 5891 5890 5890 5889 5888 5888 5889 5890 5890 5890 5890 5890 5890 5889 5889 5889 5889 5888 5888 5888 5887 5887 5888 5889 5889 5890 5890 5891 5891 5890 5890 5890 5890 5890 5892 5892 5890 5891 5894 5896 5897 5897 5898 5899 5900 5901 5901 5901 5902 5903 5904 5905 5906 5907 5907 5908 5908 5908 5909 5910 5910 5910 5910 5910 5909 5909
5892 5892 5893 5893 5893 5893 5893 5894 5895 5895 5896 5896 5896 5896 5895 5895 5895 5895 5895 5895 5895 5894 5894 5894 5894 5894 5893 5893 5893 5893 5892 5891 5890 5890 5889 5888 5888 5889 5889 5890 5890 5890 5890 5890 5889 5889 5889 5888 5887 5887 5887 5887 5887 5888 5888 5889 5890 5889 5890 5890 5889 5889 5889 5889 5889 5890 5890 5890 5891 5894 5895 5897 5898 5899 5899 5899 5900 5901 5901 5902 5904 5905 5906 5907 5908 5908 5908 5908 5909 5909 5910 5910 5910 5911 5911 5910 5910
5892 5892 5893 5893 5893 5893 5893 5893 5895 5895 5896 5896 5896 5895 5895 5895 5895 5895 5895 5895 5895 5895 5895 5894 5894 5894 5894 5893 5893 5893 5892 5891 5891 5890 5889 5888 5888 5888 5889 5889 5890 5890 5890 5890 5889 5889 5889 5888 5888 5888 5888 5887 5887 5887 5888 5889 5889 5889 5889 5889 5888 5887 5887 5888 5889 5890 5890 5890 5891 5893 5895 5897 5898 5899 5899 5899 5900 5901 5902 5903 5905 5906 5907 5908 5908 5909 5909 5909 5909 5909 5910 5910 5910 5911 5911 5911 5911
5893 5893 5893 5893 5893 5893 5893 5893 5894 5895 5896 5896 5895 5895 5895 5895 5895 5896 5896 5896 5896 5895 5895 5895 5894 5894 5894 5894 5893 5893 5892 5892 5891 5890 5889 5888 5888 5888 5888 5889 5889 5890 5890 5890 5890 5889 5889 5888 5888 5888 5888 5887 5887 5888 5888 5889 5889 5889 5888 5888 5887 5885 5886 5887 5888 5890 5891 5890 5892 5893 5895 5898 5899 5899 5899 5900 5901 5902 5903 5904 5905 5906 5907 5908 5909 5909 5910 5910 5910 5910 5910 5911 5911 5911 5911 5911 5911
5893 5893 5893 5893 5894 5893 5893 5893 5894 5895 5896 5896 5895 5895 5895 5895 5895 5895 5896 5896 5896 5896 5896 5895 5895 5895 5894 5894 5893 5893 5892 5892 5891 5890 5889 5889 5888 5888 5888 5888 5889 5889 5890 5890 5889 5889 5888 5888 5888 5887 5888 5887 5887 5888 5888 5888 5889 5888 5888 5887 5886 5885 5885 5887 5889 5890 5890 5890 5891 5893 5896 5897 5898 5898 5899 5900 5901 5903 5903 5904 5905 5906 5907 5908 5910 5910 5911 5911 5911 5911 5911 5911 5912 5912 5912 5912 5913
5892 5892 5893 5893 5894 5894 5894 5893 5893 5895 5895 5896 5895 5895 5895 5895 5895 5895 5896 5896 5896 5896 5896 5896 5895 5895 5894 5894 5893 5893 5892 5892 5891 5890 5889 5888 5888 5888 5888 5888 5888 5889 5889 5890 5889 5888 5888 5888 5888 5888 5888 5888 5888 5889 5888 5888 5888 5888 5888 5888 5886 5886 5886 5888 5889 5890 5890 5890 5891 5893 5896 5897 5897 5898 5899 5901 5902 5903 5904 5905 5906 5906 5908 5909 5910 5911 5911 5912 5912 5912 5912 5912 5912 5913 5913 5914 5914
5892 5892 5893 5893 5893 5894 5895 5893 5893 5894 5895 5895 5895 5895 5895 5895 5895 5895 5896 5896 5896 5896 5896 5896 5895 5895 5894 5894 5893 5893 5893 5892 5891 5890 5889 5888 5888 5888 5888 5888 5888 5888 5889 5889 5889 5888 5888 5888 5888 5888 5888 5888 5888 5889 5888 5888 5888 5889 5889 5888 5888 5888 5888 5889 5891 5891 5891 5892 5892 5893 5895 5897 5898 5899 5900 5902 5902 5903 5905 5906 5906 5907 5908 5909 5910 5911 5912 5912 5912 5912 5912 5912 5913 5913 5914 5915 5915
5892 5892 5893 5893 5893 5893 5893 5893 5892 5893 5894 5895 5895 5895 5895 5895 5895 5895 5896 5896 5896 5896 5896 5896 5895 5895 5894 5894 5893 5893 5893 5892 5891 5890 5889 5888 5888 5888 5888 5888 5888 5888 5888 5888 5888 5888 5888 5889 5889 5889 5888 5887 5888 5888 5889 5889 5889 5889 5889 5889 5889 5889 5890 5891 5891 5892 5892 5893 5893 5894 5895 5897 5899 5899 5901 5903 5903 5904 5905 5906 5906 5907 5908 5909 5910 5911 5912 5912 5912 5912 5912 5913 5914 5914 5915 5916 5916
5892 5892 5892 5893 5893 5892 5892 5892 5892 5893 5894 5894 5894 5895 5895 5895 5895 5895 5896 5896 5896 5896 5896 5896 5895 5895 5894 5894 5893 5893 5893 5892 5891 5890 5889 5888 5888 5888 5888 5888 5888 5888 5887 5887 5887 5887 5888 5888 5888 5889 5889 5888 5888 5889 5890 5890 5890 5891 5891 5891 5890 5890 5891 5891 5891 5892 5892 5894 5895 5896 5896 5897 5899 5900 5902 5903 5903 5904 5906 5907 5907 5907 5908 5910 5911 5911 5912 5912 5912 5912 5913 5914 5915 5915 5916 5917 5917
5892 5892 5892 5893 5893 5892 5892 5892 5892 5893 5893 5894 5894 5894 5894 5894 5894 5895 5895 5895 5896 5896 5895 5895 5895 5894 5894 5894 5893 5893 5893 5892 5891 5890 5889 5888 5888 5887 5887 5887 5888 5888 5887 5887 5887 5887 5887 5888 5888 5888 5890 5889 5889 5890 5891 5891 5891 5891 5892 5892 5892 5891 5891 5891 5892 5893 5894 5895 5896 5897 5897 5898 5899 5900 5901 5901 5902 5905 5907 5907 5907 5907 5909 5910 5911 5912 5913 5913 5913 5913 5914 5915 5916 5917 5917 5918 5918
5892 5892 5893 5893 5893 5893 5892 5892 5892 5893 5893 5893 5894 5894 5894 5894 5894 5894 5895 5895 5895 5895 5895 5895 5894 5894 5894 5893 5893 5893 5892 5892 5891 5890 5889 5889 5888 5887 5887 5887 5887 5887 5886 5886 5886 5886 5886 5887 5887 5887 5889 5890 5889 5890 5891 5891 5892 5892 5892 5892 5893 5892 5892 5892 5892 5894 5895 5895 5897 5898 5898 5898 5899 5900 5900 5900 5901 5905 5908 5907 5907 5907 5909 5911 5912 5913 5913 5914 5914 5914 5915 5916 5917 5918 5918 5919 5919
5892 5892 5893 5893 5894 5893 5893 5893 5893 5893 5892 5892 5893 5894 5893 5893 5893 5894 5894 5894 5895 5895 5894 5894 5894 5894 5893 5893 5893 5892 5892 5891 5891 5890 5889 5889 5888 5887 5886 5886 5887 5887 5886 5886 5885 5886 5885 5885 5886 5887 5888 5890 5889 5889 5890 5891 5892 5892 5892 5893 5893 5893 5893 5893 5893 5894 5894 5895 5896 5898 5899 5899 5899 5900 5900 5899 5901 5906 5909 5907 5906 5907 5910 5912 5913 5914 5914 5914 5915 5915 5916 5917 5918 5919 5919 5920 5920
5891 5892 5893 5893 5893 5893 5893 5893 5893 5893 5893 5893 5893 5893 5893 5893 5893 5894 5894 5894 5894 5894 5894 5893 5893 5893 5893 5893 5892 5892 5892 5891 5890 5890 5889 5888 5888 5887 5886 5886 5886 5887 5886 5885 5885 5885 5885 5885 5885 5886 5887 5889 5889 5889 5889 5890 5891 5892 5892 5893 5893 5893 5893 5893 5894 5894 5894 5894 5896 5897 5898 5899 5900 5900 5899 5898 5902 5907 5908 5906 5905 5907 5910 5912 5914 5915 5915 5915 5915 5915 5916 5918 5919 5920 5920 5921 5921
5891 5892 5893 5893 5893 5893 5892 5893 5893 5893 5893 5893 5893 5893 5893 5893 5893 5894 5894 5894 5894 5893 5893 5893 5892 5892 5892 5892 5892 5892 5891 5891 5890 5889 5889 5888 5887 5887 5886 5885 5886 5886 5886 5885 5884 5884 5885 5884 5884 5885 5887 5888 5888 5888 5889 5890 5891 5891 5892 5893 5893 5893 5893 5894 5895 5895 5894 5895 5896 5897 5898 5899 5900 5899 5898 5900 5905 5908 5908 5906 5905 5907 5910 5912 5914 5915 5915 5915 5915 5916 5917 5919 5920 5921 5922 5922 5922
5891 5892 5892 5893 5893 5893 5893 5893 5893 5893 5894 5894 5894 5894 5893 5893 5893 5894 5894 5894 5894 5894 5893 5892 5892 5892 5892 5892 5892 5891 5891 5890 5889 5889 5889 5888 5887 5887 5886 5885 5885 5886 5886 5886 5885 5884 5884 5883 5883 5885 5886 5887 5887 5887 5887 5889 5890 5891 5891 5892 5892 5893 5894 5894 5895 5895 5895 5895 5896 5897 5898 5899 5898 5897 5898 5902 5905 5905 5904 5904 5904 5906 5910 5912 5914 5915 5916 5916 5916 5917 5919 5920 5921 5922 5922 5923 5923
5890 5891 5892 5892 5892 5893 5893 5893 5893 5893 5894 5894 5894 5894 5893 5893 5894 5894 5895 5894 5894 5894 5893 5892 5892 5892 5892 5892 5891 5891 5890 5890 5889 5888 5888 5887 5887 5887 5886 5885 5885 5886 5886 5886 5885 5884 5883 5882 5883 5884 5885 5886 5887 5886 5886 5887 5889 5890 5891 5892 5892 5893 5894 5895 5895 5895 5895 5896 5897 5898 5899 5898 5896 5897 5900 5901 5902 5902 5902 5902 5904 5906 5908 5911 5913 5914 5915 5916 5917 5919 5920 5921 5922 5922 5922 5923 5923
5890 5890 5891 5891 5892 5892 5893 5893 5893 5893 5894 5894 5894 5893 5893 5892 5893 5894 5895 5894 5894 5893 5893 5892 5892 5892 5892 5891 5891 5890 5890 5889 5889 5888 5887 5887 5886 5886 5886 5885 5885 5885 5885 5885 5885 5884 5882 5882 5883 5883 5884 5885 5886 5886 5886 5886 5888 5889 5890 5891 5892 5893 5894 5895 5895 5895 5895 5896 5897 5898 5898 5898 5898 5900 5901 5901 5901 5903 5903 5903 5904 5906 5907 5909 5911 5913 5914 5916 5917 5919 5920 5921 5921 5922 5922 5923 5923
5888 5889 5890 5890 5891 5892 5892 5893 5894 5894 5894 5894 5894 5893 5892 5892 5893 5894 5894 5894 5893 5893 5893 5892 5892 5891 5891 5891 5891 5890 5889 5889 5888 5888 5887 5887 5886 5886 5885 5885 5885 5884 5884 5884 5884 5884 5882 5882 5882 5882 5882 5883 5885 5886 5886 5886 5887 5889 5890 5892 5892 5893 5894 5895 5895 5895 5895 5896 5897 5897 5898 5900 5902 5902 5902 5902 5902 5903 5905 5906 5906 5907 5908 5909 5911 5912 5913 5915 5916 5918 5919 5920 5922 5922 5923 5924 5924
5887 5888 5889 5889 5890 5891 5892 5892 5893 5894 5894 5894 5894 5893 5892 5892 5892 5893 5893 5893 5893 5892 5892 5892 5892 5891 5891 5890 5890 5890 5889 5888 5888 5888 5887 5886 5886 5886 5885 5885 5884 5884 5884 5884 5883 5883 5882 5882 5882 5882 5881 5882 5883 5884 5885 5885 5886 5888 5890 5891 5892 5892 5894 5895 5895 5895 5896 5897 5898 5898 5900 5902 5904 5903 5903 5903 5903 5904 5906 5907 5908 5909 5909 5911 5912 5913 5914 5915 5917 5919 5920 5921 5923 5923 5924 5925 5925
5887 5887 5888 5889 5890 5891 5891 5892 5892 5893 5893 5894 5894 5893 5893 5892 5892 5892 5892 5892 5892 5892 5892 5892 5891 5891 5890 5890 5889 5889 5889 5888 5888 5888 5887 5886 5886 5885 5885 5884 5884 5883 5883 5883 5883 5881 5881 5881 5882 5882 5881 5882 5882 5883 5883 5884 5885 5887 5889 5890 5891 5891 5892 5893 5895 5895 5896 5897 5898 5899 5900 5902 5903 5903 5903 5902 5903 5904 5905 5907 5908 5909 5911 5912 5913 5915 5916 5917 5919 5920 5922 5923 5924 5924 5925 5925 5925
5886 5887 5888 5888 5889 5890 5890 5891 5892 5892 5892 5893 5894 5893 5893 5892 5892 5892 5892 5892 5892 5892 5891 5891 5890 5890 5890 5889 5889 5889 5888 5887 5887 5887 5887 5886 5886 5885 5884 5884 5883 5883 5883 5882 5882 5881 5880 5881 5881 5881 5881 5882 5882 5882 5882 5883 5884 5886 5888 5888 5890 5890 5890 5892 5894 5895 5896 5897 5898 5899 5900 5901 5901 5902 5902 5902 5902 5903 5904 5906 5907 5909 5912 5913 5915 5916 5917 5919 5920 5921 5923 5924 5924 5925 5925 5925 5925
5885 5886 5887 5887 5888 5888 5889 5890 5890 5891 5891 5892 5892 5893 5893 5892 5891 5891 5891 5891 5891 5891 5891 5890 5890 5889 5889 5888 5888 5888 5887 5887 5887 5887 5887 5886 5886 5885 5884 5883 5882 5882 5882 5882 5881 5880 5880 5880 5881 5881 5881 5881 5881 5881 5882 5882 5883 5885 5887 5887 5889 5890 5890 5891 5892 5893 5895 5896 5897 5898 5899 5900 5901 5901 5901 5902 5902 5902 5903 5905 5907 5909 5911 5913 5915 5916 5918 5919 5921 5922 5923 5924 5925 5925 5925 5925 5925
5885 5885 5886 5887 5887 5887 5887 5888 5889 5889 5890 5890 5891 5892 5892 5891 5891 5891 5890 5890 5891 5890 5890 5890 5889 5889 5888 5888 5888 5888 5887 5887 5886 5886 5886 5886 5885 5884 5884 5883 5882 5882 5881 5881 5881 5880 5879 5880 5880 5880 5881 5880 5880 5881 5881 5882 5883 5885 5886 5887 5888 5889 5889 5890 5891 5893 5894 5895 5896 5898 5899 5899 5900 5901 5901 5902 5902 5902 5904 5905 5907 5909 5911 5912 5914 5916 5917 5919 5920 5922 5923 5923 5924 5925 5925 5925 5926
5884 5885 5885 5886 5886 5886 5886 5887 5888 5888 5889 5890 5890 5890 5891 5890 5890 5890 5890 5890 5890 5890 5889 5889 5889 5888 5888 5887 5887 5887 5887 5886 5886 5886 5885 5885 5885 5884 5883 5883 5882 5881 5881 5881 5880 5880 5880 5879 5880 5880 5880 5880 5880 5880 5880 5881 5882 5884 5885 5886 5887 5888 5888 5889 5890 5892 5893 5895 5896 5897 5898 5899 5900 5900 5901 5902 5902 5903 5905 5906 5908 5909 5911 5912 5914 5916 5917 5919 5920 5921 5923 5924 5924 5925 5926 5926 5928
5883 5884 5885 5885 5885 5885 5885 5886 5887 5887 5888 5889 5889 5889 5889 5889 5890 5890 5889 5889 5889 5888 5888 5888 5888 5887 5887 5886 5886 5886 5886 5886 5885 5885 5885 5884 5884 5884 5883 5882 5882 5881 5880 5880 5880 5880 5880 5879 5879 5880 5880 5880 5880 5880 5880 5881 5881 5883 5884 5885 5886 5887 5887 5889 5890 5891 5893 5894 5895 5897 5898 5898 5899 5900 5901 5902 5903 5904 5906 5907 5909 5910 5912 5913 5914 5916 5917 5919 5920 5922 5923 5924 5925 5925 5926 5928 5929
5883 5883 5884 5885 5885 5885 5885 5886 5886 5887 5887 5887 5888 5888 5887 5888 5888 5889 5889 5889 5888 5887 5887 5887 5886 5886 5886 5885 5885 5885 5885 5885 5885 5885 5884 5884 5884 5883 5883 5882 5881 5881 5880 5880 5880 5880 5880 5879 5879 5879 5879 5880 5880 5880 5880 5880 5881 5882 5883 5884 5885 5886 5887 5888 5889 5891 5892 5893 5895 5896 5897 5898 5899 5900 5901 5902 5904 5905 5907 5909 5910 5911 5913 5914 5915 5916 5918 5920 5921 5922 5923 5924 5925 5926 5928 5929 5929
5882 5883 5884 5885 5885 5885 5885 5885 5886 5886 5886 5886 5887 5887 5886 5886 5887 5887 5887 5888 5887 5887 5886 5885 5885 5886 5886 5885 5885 5884 5884 5884 5884 5884 5884 5883 5883 5883 5882 5882 5881 5880 5880 5880 5880 5880 5879 5879 5878 5878 5879 5879 5879 5879 5880 5880 5881 5881 5882 5883 5884 5885 5886 5887 5889 5890 5891 5893 5894 5895 5897 5897 5898 5900 5901 5903 5905 5906 5908 5910 5911 5913 5914 5915 5916 5917 5919 5920 5922 5923 5924 5925 5926 5927 5928 5929 5930
5882 5883 5884 5884 5885 5885 5884 5885 5885 5885 5885 5885 5886 5886 5886 5885 5886 5886 5886 5886 5886 5886 5885 5884 5884 5884 5884 5884 5884 5884 5884 5883 5883 5883 5883 5883 5883 5882 5882 5882 5881 5880 5880 5880 5880 5880 5879 5879 5878 5878 5878 5878 5879 5879 5879 5880 5880 5881 5882 5883 5883 5884 5885 5887 5888 5889 5890 5892 5894 5895 5896 5897 5898 5900 5902 5904 5906 5907 5909 5911 5912 5914 5915 5915 5917 5918 5920 5921 5923 5924 5925 5926 5927 5928 5929 5930 5930
5882 5882 5883 5883 5884 5884 5884 5884 5884 5884 5884 5884 5885 5886 5886 5885 5885 5885 5885 5885 5884 5885 5884 5883 5883 5883 5882 5882 5882 5883 5883 5882 5882 5883 5882 5882 5882 5882 5881 5881 5881 5880 5880 5880 5880 5879 5878 5878 5878 5877 5877 5877 5878 5879 5879 5879 5880 5881 5882 5882 5883 5884 5885 5886 5887 5888 5890 5892 5893 5895 5896 5897 5899 5901 5903 5904 5906 5908 5910 5912 5913 5914 5915 5916 5918 5919 5920 5922 5923 5924 5925 5926 5927 5928 5929 5930 5931
5881 5882 5882 5883 5883 5883 5883 5883 5883 5883 5883 5883 5884 5885 5885 5884 5884 5883 5883 5883 5883 5883 5882 5881 5882 5881 5880 5881 5880 5881 5882 5881 5882 5882 5882 5882 5882 5881 5881 5881 5881 5880 5880 5879 5879 5878 5878 5878 5878 5877 5877 5877 5877 5878 5879 5879 5879 5880 5882 5882 5882 5883 5884 5886 5887 5888 5890 5892 5893 5895 5896 5897 5899 5901 5903 5905 5907 5909 5911 5912 5913 5914 5916 5917 5918 5920 5921 5922 5923 5924 5925 5926 5927 5928 5929 5930 5931
5880 5880 5881 5882 5882 5882 5883 5883 5882 5882 5882 5882 5883 5884 5884 5883 5883 5882 5882 5881 5881 5881 5880 5879 5879 5879 5879 5879 5879 5879 5880 5880 5881 5881 5881 5881 5881 5881 5881 5881 5880 5880 5879 5879 5878 5878 5877 5878 5878 5877 5877 5877 5877 5878 5878 5879 5879 5880 5881 5881 5882 5883 5884 5886 5887 5889 5890 5892 5893 5895 5896 5898 5900 5902 5904 5906 5908 5910 5911 5913 5914 5915 5916 5917 5919 5920 5921 5921 5923 5924 5925 5926 5927 5929 5930 5930 5931
5878 5879 5880 5880 5880 5881 5881 5881 5881 5881 5881 5882 5882 5882 5882 5882 5881 5881 5880 5879 5879 5878 5877 5877 5876 5876 5876 5876 5877 5877 5878 5879 5880 5881 5881 5881 5880 5880 5880 5880 5880 5880 5879 5879 5878 5877 5877 5877 5877 5877 5877 5877 5877 5877 5878 5878 5879 5880 5880 5881 5882 5883 5884 5886 5888 5889 5891 5892 5894 5895 5897 5899 5901 5903 5905 5907 5909 5911 5912 5913 5914 5915 5916 5918 5919 5920 5920 5921 5922 5924 5925 5926 5927 5929 5930 5930 5931
5877 5877 5878 5879 5879 5880 5880 5880 5879 5880 5880 5881 5881 5881 5881 5880 5880 5879 5878 5878 5877 5875 5874 5874 5873 5872 5872 5873 5874 5875 5877 5879 5879 5880 5880 5880 5880 5879 5880 5880 5880 5880 5879 5879 5878 5878 5877 5877 5877 5878 5878 5878 5877 5877 5877 5877 5878 5879 5880 5881 5883 5884 5885 5887 5888 5890 5891 5892 5894 5896 5898 5900 5902 5904 5907 5908 5910 5911 5912 5913 5914 5916 5917 5918 5919 5919 5921 5922 5923 5924 5925 5926 5928 5929 5930 5930 5931
5875 5876 5877 5878 5878 5878 5878 5878 5878 5879 5879 5880 5880 5880 5879 5879 5878 5877 5877 5876 5875 5873 5872 5871 5870 5869 5868 5870 5871 5873 5876 5877 5878 5879 5879 5879 5879 5879 5879 5880 5880 5880 5879 5879 5879 5878 5878 5878 5878 5878 5878 5878 5878 5878 5877 5877 5878 5878 5879 5881 5883 5884 5885 5887 5889 5890 5892 5893 5895 5897 5899 5901 5903 5906 5908 5909 5911 5912 5913 5914 5915 5916 5917 5918 5919 5920 5921 5922 5923 5924 5925 5926 5928 5929 5930 5930 5931
5874 5875 5876 5877 5877 5878 5877 5877 5877 5878 5878 5879 5879 5879 5878 5877 5876 5876 5875 5874 5873 5871 5869 5867 5866 5866 5867 5868 5869 5872 5874 5876 5878 5879 5879 5879 5879 5879 5879 5880 5880 5880 5880 5879 5879 5878 5878 5878 5878 5878 5878 5878 5878 5878 5878 5877 5878 5879 5880 5882 5883 5885 5886 5888 5890 5891 5893 5895 5897 5899 5901 5903 5905 5907 5908 5910 5911 5912 5913 5915 5915 5916 5917 5918 5919 5920 5921 5922 5923 5924 5925 5926 5927 5929 5930 5930 5931
5873 5874 5875 5876 5877 5877 5876 5876 5876 5877 5877 5877 5878 5878 5877 5876 5875 5874 5873 5872 5870 5869 5866 5863 5862 5864 5865 5866 5868 5872 5873 5875 5877 5878 5878 5878 5878 5879 5879 5880 5880 5880 5880 5879 5879 5879 5879 5879 5879 5879 5879 5879 5879 5879 5878 5878 5879 5880 5881 5883 5884 5886 5887 5889 5891 5893 5895 5897 5898 5900 5902 5904 5906 5907 5909 5910 5911 5912 5914 5915 5916 5916 5917 5918 5919 5921 5922 5923 5924 5925 5926 5927 5928 5928 5929 5930 5931
5872 5873 5874 5875 5876 5876 5875 5875 5876 5876 5876 5876 5877 5877 5875 5874 5874 5872 5872 5870 5867 5866 5863 5859 5859 5860 5862 5864 5868 5871 5872 5875 5877 5878 5878 5878 5878 5878 5879 5880 5880 5880 5880 5880 5879 5879 5879 5879 5880 5880 5880 5880 5880 5880 5879 5879 5880 5881 5883 5884 5886 5887 5889 5891 5893 5895 5896 5898 5900 5901 5903 5905 5907 5908 5909 5910 5911 5913 5914 5915 5916 5917 5918 5919 5920 5921 5922 5923 5924 5925 5926 5927 5928 5929 5929 5930 5931
5871 5871 5872 5873 5874 5874 5875 5875 5875 5875 5875 5874 5875 5876 5874 5873 5872 5871 5870 5868 5867 5865 5861 5858 5858 5858 5860 5864 5868 5870 5872 5875 5876 5876 5877 5878 5878 5878 5879 5880 5880 5880 5880 5880 5880 5880 5880 5880 5881 5881 5881 5881 5881 5882 5881 5881 5882 5883 5885 5886 5888 5889 5891 5892 5894 5896 5898 5899 5901 5902 5904 5906 5907 5908 5909 5910 5911 5912 5913 5915 5916 5917 5918 5919 5920 5922 5923 5924 5924 5925 5926 5927 5928 5929 5929 5930 5931
5871 5869 5870 5870 5871 5872 5873 5873 5874 5874 5874 5874 5874 5875 5873 5872 5871 5870 5869 5868 5867 5865 5862 5860 5859 5859 5861 5865 5867 5869 5872 5874 5874 5875 5876 5877 5878 5878 5879 5880 5880 5880 5880 5880 5880 5880 5880 5881 5882 5882 5883 5883 5883 5884 5884 5884 5885 5886 5887 5888 5889 5891 5893 5894 5896 5897 5899 5901 5902 5904 5905 5906 5907 5908 5909 5910 5911 5912 5913 5915 5916 5917 5918 5920 5921 5922 5923 5924 5925 5925 5926 5927 5928 5928 5929 5929 5930
5870 5868 5868 5869 5869 5870 5871 5872 5873 5873 5873 5873 5873 5873 5873 5871 5870 5869 5869 5868 5867 5866 5864 5863 5862 5862 5863 5865 5867 5869 5871 5873 5873 5874 5875 5876 5878 5879 5879 5879 5880 5880 5881 5881 5881 5881 5881 5882 5882 5883 5884 5885 5885 5886 5886 5887 5888 5889 5890 5891 5892 5893 5894 5896 5897 5899 5900 5902 5903 5904 5906 5907 5908 5909 5910 5910 5911 5912 5913 5915 5917 5918 5919 5920 5921 5922 5923 5924 5924 5925 5926 5927 5928 5928 5928 5929 5930
5868 5867 5868 5869 5869 5870 5870 5871 5872 5872 5873 5872 5871 5872 5872 5870 5869 5869 5868 5868 5868 5866 5866 5865 5864 5864 5864 5865 5868 5870 5871 5872 5873 5874 5875 5876 5878 5879 5879 5879 5880 5880 5881 5881 5881 5881 5882 5883 5884 5884 5885 5886 5887 5887 5888 5889 5890 5891 5892 5893 5894 5895 5896 5897 5899 5900 5901 5903 5904 5905 5906 5907 5908 5909 5910 5910 5911 5912 5913 5915 5917 5918 5919 5920 5921 5922 5923 5924 5924 5925 5926 5927 5927 5928 5929 5930 5930
5866 5866 5867 5868 5868 5869 5870 5871 5871 5871 5872 5871 5870 5870 5871 5870 5869 5868 5868 5868 5868 5867 5866 5866 5865 5866 5866 5867 5869 5870 5871 5872 5873 5873 5875 5876 5878 5879 5878 5878 5879 5880 5881 5881 5882 5882 5883 5884 5885 5886 5886 5887 5888 5889 5890 5890 5891 5892 5893 5894 5895 5896 5897 5898 5900 5901 5902 5903 5904 5905 5906 5907 5908 5909 5910 5911 5911 5913 5914 5915 5917 5918 5919 5920 5921 5922 5922 5923 5923 5924 5925 5926 5927 5928 5929 5929 5930
5865 5865 5867 5867 5868 5868 5869 5869 5870 5870 5870 5869 5869 5869 5869 5869 5868 5868 5868 5868 5868 5867 5866 5866 5866 5866 5867 5868 5869 5870 5871 5872 5873 5873 5874 5875 5876 5877 5877 5878 5879 5880 5881 5881 5882 5883 5883 5884 5885 5886 5887 5888 5889 5890 5891 5892 5892 5893 5894 5895 5896 5897 5898 5899 5900 5901 5903 5904 5905 5906 5907 5908 5908 5909 5910 5911 5912 5913 5914 5916 5917 5918 5919 5920 5921 5922 5922 5922 5923 5924 5925 5926 5927 5927 5928 5929 5929
5864 5865 5865 5866 5866 5867 5867 5868 5868 5869 5868 5867 5867 5868 5868 5868 5867 5867 5867 5867 5867 5866 5866 5866 5866 5866 5867 5868 5869 5870 5870 5871 5872 5873 5874 5874 5875 5876 5877 5878 5878 5880 5881 5881 5882 5883 5884 5885 5886 5887 5888 5889 5890 5891 5892 5893 5894 5895 5896 5896 5897 5898 5899 5900 5902 5903 5904 5904 5905 5906 5907 5908 5909 5910 5910 5911 5913 5914 5915 5916 5917 5918 5919 5920 5921 5921 5921 5922 5922 5923 5924 5925 5926 5927 5928 5928 5929
5863 5863 5864 5865 5866 5866 5866 5867 5867 5867 5867 5866 5866 5867 5867 5867 5866 5866 5866 5866 5866 5866 5865 5865 5865 5865 5866 5867 5868 5869 5870 5871 5872 5873 5874 5874 5874 5875 5876 5877 5878 5879 5880 5881 5882 5883 5884 5885 5886 5888 5889 5890 5891 5892 5893 5894 5895 5896 5897 5898 5898 5899 5900 5901 5902 5903 5904 5905 5906 5907 5907 5908 5909 5910 5911 5912 5913 5914 5915 5916 5917 5918 5919 5920 5920 5921 5921 5922 5922 5923 5924 5925 5926 5926 5927 5928 5928
5862 5862 5863 5864 5866 5866 5867 5868 5867 5866 5865 5865 5865 5866 5866 5866 5865 5865 5865 5865 5865 5865 5864 5864 5864 5865 5865 5865 5867 5867 5868 5870 5871 5872 5872 5873 5873 5875 5876 5877 5878 5879 5880 5881 5882 5883 5884 5885 5887 5888 5889 5891 5891 5892 5893 5895 5896 5896 5897 5898 5899 5900 5901 5901 5902 5903 5904 5905 5906 5907 5908 5909 5910 5911 5912 5913 5914 5914 5915 5916 5917 5918 5919 5919 5920 5921 5921 5922 5923 5923 5924 5925 5925 5926 5927 5928 5928
5861 5861 5862 5863 5864 5865 5866 5867 5866 5865 5864 5863 5864 5865 5865 5864 5864 5864 5863 5864 5864 5864 5864 5864 5864 5864 5864 5865 5865 5865 5866 5868 5869 5870 5870 5871 5872 5874 5875 5876 5878 5879 5880 5881 5882 5883 5884 5885 5887 5888 5890 5891 5892 5893 5894 5895 5896 5897 5898 5898 5899 5900 5901 5902 5902 5903 5904 5905 5906 5907 5908 5909 5910 5912 5913 5913 5914 5915 5915 5916 5917 5917 5918 5919 5920 5920 5921 5922 5923 5924 5924 5925 5925 5926 5926 5927 5928
5860 5860 5860 5862 5862 5862 5863 5863 5863 5863 5863 5863 5864 5864 5863 5863 5863 5862 5862 5862 5863 5863 5862 5862 5862 5862 5863 5864 5864 5864 5864 5864 5866 5867 5868 5870 5871 5873 5874 5876 5877 5878 5879 5880 5881 5882 5883 5885 5886 5888 5890 5891 5892 5893 5894 5895 5896 5897 5898 5899 5899 5900 5901 5902 5902 5903 5904 5905 5906 5907 5908 5909 5910 5911 5912 5913 5914 5915 5915 5916 5916 5917 5918 5918 5919 5920 5921 5922 5923 5924 5924 5925 5925 5926 5926 5927 5927
5859 5860 5861 5860 5860 5860 5861 5862 5861 5862 5863 5863 5862 5863 5862 5862 5862 5861 5861 5861 5861 5861 5861 5861 5860 5859 5861 5863 5863 5862 5862 5863 5865 5866 5867 5869 5870 5871 5873 5874 5876 5877 5878 5880 5880 5881 5883 5884 5885 5887 5889 5891 5892 5893 5894 5895 5896 5897 5898 5899 5899 5900 5901 5902 5903 5903 5904 5905 5906 5907 5908 5909 5910 5911 5912 5913 5914 5914 5915 5915 5916 5916 5917 5918 5919 5920 5921 5922 5923 5923 5924 5925 5925 5926 5926 5927 5927
5859 5860 5860 5858 5858 5859 5859 5860 5861 5862 5863 5863 5862 5862 5862 5861 5861 5860 5860 5860 5860 5860 5860 5859 5858 5857 5858 5860 5861 5861 5861 5862 5864 5865 5866 5868 5870 5871 5872 5873 5874 5875 5876 5878 5880 5881 5882 5883 5884 5886 5888 5890 5892 5893 5894 5895 5896 5897 5898 5899 5899 5900 5901 5902 5903 5903 5904 5905 5906 5907 5908 5909 5910 5910 5911 5912 5913 5914 5915 5915 5916 5916 5917 5918 5918 5919 5921 5922 5922 5923 5924 5924 5925 5926 5926 5927 5927
5856 5857 5857 5857 5858 5859 5858 5859 5861 5861 5863 5863 5861 5861 5861 5860 5859 5859 5859 5859 5858 5858 5858 5858 5857 5856 5856 5857 5859 5860 5861 5861 5862 5863 5865 5866 5868 5870 5871 5871 5872 5874 5875 5877 5878 5880 5881 5882 5883 5885 5887 5889 5891 5893 5894 5895 5896 5897 5898 5899 5900 5900 5901 5902 5903 5903 5904 5905 5906 5907 5908 5908 5909 5910 5911 5912 5913 5914 5914 5915 5915 5916 5917 5917 5918 5919 5920 5921 5922 5923 5923 5924 5925 5926 5926 5926 5927
5854 5855 5855 5855 5856 5857 5857 5857 5858 5859 5860 5861 5860 5860 5860 5858 5857 5857 5857 5857 5857 5856 5856 5856 5856 5855 5855 5856 5857 5859 5859 5860 5861 5862 5863 5864 5866 5867 5868 5869 5871 5872 5874 5876 5877 5879 5880 5881 5883 5884 5886 5888 5890 5892 5893 5894 5895 5897 5898 5899 5900 5900 5901 5902 5903 5903 5904 5905 5906 5907 5907 5908 5909 5909 5910 5911 5912 5913 5914 5915 5915 5916 5917 5917 5918 5919 5920 5921 5921 5922 5923 5924 5924 5925 5925 5926 5926
5853 5854 5854 5854 5854 5855 5855 5856 5856 5856 5857 5857 5857 5859 5858 5856 5855 5856 5855 5855 5855 5855 5855 5855 5854 5854 5854 5855 5857 5859 5859 5858 5859 5861 5862 5863 5865 5866 5867 5867 5869 5871 5874 5875 5876 5878 5879 5881 5882 5883 5885 5887 5889 5890 5892 5893 5894 5896 5897 5898 5899 5900 5901 5902 5902 5903 5904 5905 5906 5906 5907 5908 5908 5909 5909 5910 5911 5912 5913 5914 5915 5916 5916 5917 5918 5919 5919 5920 5921 5921 5922 5923 5923 5924 5924 5925 5925
5851 5852 5852 5852 5852 5853 5854 5855 5854 5854 5854 5855 5855 5856 5856 5854 5854 5854 5854 5854 5854 5853 5853 5853 5853 5853 5854 5854 5855 5857 5859 5858 5858 5859 5860 5862 5863 5864 5865 5866 5868 5870 5872 5874 5875 5876 5878 5879 5881 5882 5883 5885 5887 5889 5890 5892 5893 5895 5896 5897 5899 5900 5901 5901 5902 5903 5904 5904 5905 5906 5907 5908 5908 5909 5909 5910 5911 5912 5913 5914 5914 5915 5916 5917 5917 5918 5919 5919 5920 5921 5921 5922 5923 5923 5924 5924 5925